Hinckley, MN

11:19 PM CST on December 09, 2019 (GMT -0600)
Hinckley

Weather History for K04W - October, 2019

Change the Weather History Date:

Monday, October 21, 2019

  Actual Average (KJMR) Record (KJMR)
Temperature  
Mean Temperature 48 °F -  
Max Temperature 53 °F 55 °F 87 °F (1947)
Min Temperature 44 °F 31 °F 17 °F (1982)
Degree Days  
Heating Degree Days 16    
Moisture  
Dew Point 43 °F    
Average Humidity 85    
Maximum Humidity 100    
Minimum Humidity 51    
Precipitation  
Precipitation 1.52 in - - ()
Sea Level Pressure  
Sea Level Pressure 29.37 in    
Wind  
Wind Speed 9 mph (NE)    
Max Wind Speed 22 mph    
Max Gust Speed 29 mph    
Visibility 8 miles    
Events Rain    
Averages and records for this station are not official NWS values.
T = Trace of Precipitation, MM = Missing Value Source: NWS Daily Summary

Daily Weather History Graph

Daily Weather History Graph

Search for Another Location

Airport or City:

Astronomy

Oct. 21, 2019 Rise Set
Actual Time 7:36 AM CDT 6:15 PM CDT
Civil Twilight 7:05 AM CDT 6:45 PM CDT
Nautical Twilight 6:31 AM CDT 7:20 PM CDT
Astronomical Twilight 5:56 AM CDT 7:55 PM CDT
Moon No Moon Rise 3:06 PM CDT (10/21)
Length of Visible Light 11h 39m
Length of Day
10h 38m
Waning Gibbous, 48% of the Moon is Illuminated
Oct 21
Waning Gibbous
Oct 27
New
Nov 4
First Quarter
Nov 12
Full
Nov 19
Last Quarter

Hourly Weather History & Observations

Time (CDT) Temp. Windchill Dew Point Humidity Pressure Visibility Wind Dir Wind Speed Gust Speed Precip Events Conditions
12:35 AM 53.6 °F - 35.6 °F 51% 29.79 in 10.0 mi ENE 8.1 mph - N/A   Clear
12:36 AM 53.6 °F - 35.6 °F 51% 29.79 in 10.0 mi East 8.1 mph - N/A   Clear
12:55 AM 51.8 °F - 37.4 °F 58% 29.79 in 10.0 mi East 5.8 mph - N/A   Clear
12:56 AM 51.8 °F - 37.4 °F 58% 29.79 in 10.0 mi ENE 5.8 mph - N/A   Clear
1:15 AM 51.8 °F - 37.4 °F 58% 29.78 in 10.0 mi East 6.9 mph - N/A   Clear
1:37 AM 51.8 °F - 37.4 °F 58% 29.77 in 10.0 mi East 6.9 mph - N/A   Clear
1:56 AM 51.8 °F - 37.4 °F 58% 29.75 in 10.0 mi ENE 5.8 mph - N/A   Clear
2:15 AM 50.0 °F - 37.4 °F 62% 29.73 in 10.0 mi ENE 5.8 mph - N/A   Clear
2:16 AM 50.0 °F - 37.4 °F 62% 29.73 in 10.0 mi ENE 5.8 mph - N/A   Clear
2:35 AM 50.0 °F - 37.4 °F 62% 29.74 in 10.0 mi East 5.8 mph - N/A   Clear
2:58 AM 50.0 °F - 35.6 °F 58% 29.73 in 10.0 mi East 6.9 mph - N/A   Clear
3:36 AM 50.0 °F - 37.4 °F 62% 29.73 in 10.0 mi East 8.1 mph - N/A   Clear
3:55 AM 50.0 °F - 37.4 °F 62% 29.72 in 10.0 mi East 8.1 mph - N/A   Clear
3:56 AM 50.0 °F - 37.4 °F 62% 29.72 in 10.0 mi ENE 9.2 mph - N/A   Clear
4:15 AM 50.0 °F - 37.4 °F 62% 29.69 in 10.0 mi East 10.4 mph - N/A   Scattered Clouds
4:37 AM 50.0 °F - 37.4 °F 62% 29.68 in 10.0 mi East 8.1 mph - N/A   Scattered Clouds
4:56 AM 50.0 °F - 35.6 °F 58% 29.66 in 10.0 mi ENE 10.4 mph - N/A   Clear
5:15 AM 50.0 °F - 35.6 °F 58% 29.66 in 10.0 mi ENE 8.1 mph - N/A   Clear
5:16 AM 50.0 °F - 35.6 °F 58% 29.66 in 10.0 mi ENE 8.1 mph - N/A   Clear
5:35 AM 50.0 °F - 35.6 °F 58% 29.65 in 10.0 mi ENE 8.1 mph - N/A   Scattered Clouds
5:36 AM 50.0 °F - 35.6 °F 58% 29.65 in 10.0 mi ENE 8.1 mph - N/A   Scattered Clouds
5:58 AM 50.0 °F - 35.6 °F 58% 29.65 in 10.0 mi ENE 6.9 mph - N/A   Scattered Clouds
6:16 AM 50.0 °F - 35.6 °F 58% 29.63 in 10.0 mi ENE 9.2 mph - N/A   Scattered Clouds
6:36 AM 50.0 °F - 35.6 °F 58% 29.62 in 10.0 mi NE 9.2 mph - N/A   Mostly Cloudy
6:55 AM 50.0 °F - 35.6 °F 58% 29.61 in 10.0 mi ENE 8.1 mph 17.3 mph N/A   Overcast
6:56 AM 50.0 °F - 35.6 °F 58% 29.61 in 10.0 mi ENE 8.1 mph 17.3 mph N/A   Overcast
7:15 AM 50.0 °F - 35.6 °F 58% 29.60 in 10.0 mi NE 6.9 mph - N/A   Overcast
7:19 AM 50.0 °F - 35.6 °F 58% 29.59 in 10.0 mi NE 8.1 mph - N/A   Overcast
7:37 AM 50.0 °F - 35.6 °F 58% 29.57 in 10.0 mi NE 6.9 mph 17.3 mph N/A   Light Drizzle
8:15 AM 48.2 °F - 35.6 °F 62% 29.54 in 10.0 mi NE 10.4 mph 16.1 mph N/A   Overcast
8:16 AM 48.2 °F - 35.6 °F 62% 29.54 in 10.0 mi NE 10.4 mph 17.3 mph N/A   Overcast
8:35 AM 48.2 °F - 35.6 °F 62% 29.52 in 10.0 mi NE 11.5 mph 19.6 mph N/A   Overcast
8:36 AM 48.2 °F - 35.6 °F 62% 29.51 in 10.0 mi NE 11.5 mph 19.6 mph N/A   Overcast
8:58 AM 46.4 °F 41.5 °F 37.4 °F 71% 29.53 in 7.0 mi NE 10.4 mph 19.6 mph N/A Rain Rain
9:17 AM 44.6 °F 40.7 °F 41.0 °F 87% 29.52 in 7.0 mi NE 6.9 mph - 0.03 in Rain Rain
9:36 AM 44.6 °F 38.8 °F 42.8 °F 93% 29.50 in 1.8 mi NNE 11.5 mph 18.4 mph 0.12 in Rain Heavy Rain
9:55 AM 44.6 °F 37.2 °F 42.8 °F 93% 29.48 in 2.5 mi NNE 17.3 mph 23.0 mph 0.22 in Rain Heavy Rain
9:56 AM 44.6 °F 36.9 °F 42.8 °F 93% 29.47 in 2.5 mi NNE 18.4 mph 23.0 mph 0.22 in Rain Heavy Rain
10:15 AM 44.6 °F 37.8 °F 42.8 °F 93% 29.45 in 2.5 mi NE 15.0 mph 24.2 mph 0.10 in Rain Heavy Rain
10:37 AM 44.6 °F 38.8 °F 44.6 °F 100% 29.44 in 3.0 mi NE 11.5 mph 24.2 mph 0.20 in Rain Heavy Rain
10:56 AM 44.6 °F 36.9 °F 44.6 °F 100% 29.41 in 4.0 mi NNE 18.4 mph 24.2 mph 0.28 in Rain Rain
11:15 AM 44.6 °F 36.6 °F 44.6 °F 100% 29.39 in 4.0 mi NNE 19.6 mph 26.5 mph 0.07 in Rain Rain
11:16 AM 44.6 °F 37.4 °F 44.6 °F 100% 29.39 in 4.0 mi NE 16.1 mph 26.5 mph 0.08 in Rain Rain
11:35 AM 44.6 °F 38.1 °F 44.6 °F 100% 29.37 in 4.0 mi NNE 13.8 mph 28.8 mph 0.16 in Rain Rain
11:40 AM 44.6 °F 37.4 °F 44.6 °F 100% 29.35 in 4.0 mi NNE 16.1 mph 27.6 mph 0.18 in Rain Rain
12:15 PM 46.4 °F 39.2 °F 44.6 °F 93% 29.29 in 4.0 mi NNE 18.4 mph 24.2 mph 0.05 in Rain Heavy Rain
12:16 PM 46.4 °F 39.2 °F 44.6 °F 93% 29.29 in 4.0 mi NNE 18.4 mph 24.2 mph 0.06 in Rain Rain
12:35 PM 46.4 °F 38.5 °F 46.4 °F 100% 29.27 in 4.0 mi NNE 21.9 mph 27.6 mph 0.13 in Rain Heavy Rain
12:55 PM 46.4 °F 39.5 °F 46.4 °F 100% 29.24 in 3.0 mi NNE 17.3 mph 25.3 mph 0.20 in Rain Rain
12:59 PM 46.4 °F 39.0 °F 46.4 °F 100% 29.24 in 3.0 mi NNE 19.6 mph 25.3 mph 0.21 in Rain Rain
1:17 PM 46.4 °F 40.4 °F 46.4 °F 100% 29.23 in 5.0 mi NNE 13.8 mph 28.8 mph 0.05 in Rain Rain
1:35 PM 46.4 °F 41.1 °F 46.4 °F 100% 29.22 in 2.0 mi ESE 11.5 mph - 0.17 in Rain Heavy Rain
1:55 PM 48.2 °F - 46.4 °F 93% 29.18 in 4.0 mi NE 15.0 mph 23.0 mph 0.28 in Rain Light Rain
1:56 PM 48.2 °F - 46.4 °F 93% 29.18 in 4.0 mi NE 11.5 mph 23.0 mph 0.28 in Rain Light Rain
2:15 PM 50.0 °F - 48.2 °F 94% 29.15 in 5.0 mi NE 16.1 mph 24.2 mph 0.03 in Rain Rain
2:16 PM 50.0 °F - 48.2 °F 94% 29.15 in 5.0 mi NE 13.8 mph 23.0 mph 0.03 in Rain Rain
2:38 PM 48.2 °F - 48.2 °F 100% 29.13 in 10.0 mi NNE 13.8 mph 25.3 mph 0.06 in Rain Light Rain
2:55 PM 48.2 °F - 48.2 °F 100% 29.12 in 10.0 mi NNE 18.4 mph 23.0 mph 0.07 in Rain Light Rain
3:15 PM 48.2 °F - 48.2 °F 100% 29.12 in 7.0 mi NE 13.8 mph 19.6 mph 0.01 in Rain Rain
3:16 PM 48.2 °F - 48.2 °F 100% 29.12 in 7.0 mi NE 15.0 mph 18.4 mph 0.01 in Rain Rain
3:35 PM 48.2 °F - 48.2 °F 100% 29.12 in 10.0 mi ENE 11.5 mph 24.2 mph 0.02 in   Light Drizzle
3:36 PM 48.2 °F - 48.2 °F 100% 29.12 in 10.0 mi ENE 11.5 mph 21.9 mph 0.02 in   Light Drizzle
3:58 PM 48.2 °F - 48.2 °F 100% 29.12 in 3.0 mi ENE 12.7 mph 20.7 mph 0.07 in Rain Heavy Rain
4:16 PM 46.4 °F 41.9 °F 46.4 °F 100% 29.12 in 3.0 mi NE 9.2 mph - 0.06 in Rain Heavy Rain
4:35 PM 46.4 °F 42.4 °F 46.4 °F 100% 29.12 in 4.0 mi NE 8.1 mph 20.7 mph 0.13 in Rain Rain
4:36 PM 46.4 °F 42.4 °F 46.4 °F 100% 29.12 in 4.0 mi NNE 8.1 mph 19.6 mph 0.13 in Rain Rain
4:55 PM 46.4 °F 41.9 °F 46.4 °F 100% 29.14 in 10.0 mi ESE 9.2 mph - 0.16 in Rain Light Rain
4:56 PM 46.4 °F 42.4 °F 46.4 °F 100% 29.14 in 10.0 mi ESE 8.1 mph - 0.16 in Rain Light Rain
5:18 PM 48.2 °F - 46.4 °F 93% 29.15 in 10.0 mi SE 3.5 mph - N/A Rain Light Rain
5:37 PM 48.2 °F - 46.4 °F 93% 29.14 in 10.0 mi NE 4.6 mph - N/A   Overcast
5:56 PM 46.4 °F 45.2 °F 46.4 °F 100% 29.14 in 10.0 mi NE 3.5 mph - N/A   Overcast
6:15 PM 46.4 °F 45.2 °F 46.4 °F 100% 29.14 in 10.0 mi NE 3.5 mph - N/A   Overcast
6:16 PM 46.4 °F 45.2 °F 46.4 °F 100% 29.14 in 10.0 mi NE 3.5 mph - N/A   Overcast
6:38 PM 46.4 °F 43.5 °F 46.4 °F 100% 29.14 in 10.0 mi NNE 5.8 mph - N/A Rain Rain
6:56 PM 46.4 °F 45.2 °F 46.4 °F 100% 29.15 in 10.0 mi North 3.5 mph - N/A   Overcast
7:15 PM 46.4 °F 44.3 °F 46.4 °F 100% 29.15 in 10.0 mi North 4.6 mph - N/A   Light Drizzle
7:16 PM 46.4 °F 44.3 °F 46.4 °F 100% 29.15 in 10.0 mi North 4.6 mph - N/A   Light Drizzle
7:35 PM 46.4 °F 44.3 °F 46.4 °F 100% 29.16 in 7.0 mi ENE 4.6 mph - 0.02 in Rain Heavy Rain
7:36 PM 46.4 °F 44.3 °F 46.4 °F 100% 29.16 in 5.0 mi NE 4.6 mph - 0.03 in Rain Heavy Rain
7:58 PM 48.2 °F - 48.2 °F 100% 29.16 in 10.0 mi East 4.6 mph - 0.05 in   Overcast
8:17 PM 48.2 °F - 48.2 °F 100% 29.17 in 10.0 mi NE 3.5 mph - N/A   Overcast
8:36 PM 46.4 °F - 46.4 °F 100% 29.17 in 10.0 mi Calm Calm - N/A   Overcast
8:55 PM 46.4 °F - 46.4 °F 100% 29.17 in 10.0 mi Calm Calm - N/A Rain Light Rain
8:56 PM 46.4 °F - 46.4 °F 100% 29.17 in 10.0 mi Calm Calm - N/A Rain Light Rain
9:15 PM 46.4 °F - 46.4 °F 100% 29.17 in 10.0 mi Calm Calm - N/A   Light Drizzle
9:19 PM 46.4 °F - 46.4 °F 100% 29.17 in 10.0 mi Calm Calm - N/A   Overcast
9:37 PM 46.4 °F - 46.4 °F 100% 29.17 in 10.0 mi Calm Calm - N/A   Overcast
9:55 PM 46.4 °F - 46.4 °F 100% 29.18 in 10.0 mi Calm Calm - N/A   Overcast
10:15 PM 46.4 °F 45.2 °F 46.4 °F 100% 29.18 in 10.0 mi ENE 3.5 mph - N/A   Overcast
10:35 PM 46.4 °F 45.2 °F 46.4 °F 100% 29.18 in 10.0 mi East 3.5 mph - N/A   Overcast
10:40 PM 46.4 °F - 46.4 °F 100% 29.18 in 10.0 mi Calm Calm - N/A   Overcast
10:57 PM 46.4 °F - 46.4 °F 100% 29.18 in 10.0 mi Calm Calm - N/A   Overcast
11:16 PM 46.4 °F - 46.4 °F 100% 29.19 in 10.0 mi Calm Calm - N/A   Overcast
11:35 PM 46.4 °F - 46.4 °F 100% 29.19 in 10.0 mi Calm Calm - N/A   Light Drizzle
11:36 PM 46.4 °F - 46.4 °F 100% 29.19 in 10.0 mi Calm Calm - N/A   Light Drizzle
11:55 PM 46.4 °F 43.5 °F 46.4 °F 100% 29.19 in 10.0 mi NW 5.8 mph - N/A   Overcast
11:56 PM 46.4 °F 45.2 °F 46.4 °F 100% 29.19 in 10.0 mi WNW 3.5 mph - N/A   Overcast